TimeCDT,TemperatureF,Dew PointF,Humidity,Sea Level PressureIn,VisibilityMPH,Wind Direction,Wind SpeedMPH,Gust SpeedMPH,PrecipitationIn,Events,Conditions,WindDirDegrees,DateUTC
12:51 AM,80.1,73.9,81,29.96,10.0,Calm,Calm,-,N/A,,Partly Cloudy,0,2013-08-23 05:51:00
1:51 AM,80.1,75.0,85,29.96,10.0,Calm,Calm,-,N/A,,Partly Cloudy,0,2013-08-23 06:51:00
2:51 AM,79.0,73.9,84,29.95,10.0,Calm,Calm,-,N/A,,Partly Cloudy,0,2013-08-23 07:51:00
3:51 AM,78.1,75.0,90,29.94,10.0,Calm,Calm,-,N/A,,Partly Cloudy,0,2013-08-23 08:51:00
4:51 AM,78.1,73.0,84,29.94,10.0,Calm,Calm,-,N/A,,Partly Cloudy,0,2013-08-23 09:51:00
5:51 AM,77.0,72.0,84,29.94,10.0,Calm,Calm,-,N/A,,Partly Cloudy,0,2013-08-23 10:51:00
6:51 AM,77.0,73.0,88,29.95,10.0,Calm,Calm,-,N/A,,Partly Cloudy,0,2013-08-23 11:51:00
7:51 AM,79.0,73.0,82,29.96,10.0,North,4.6,-,N/A,,Partly Cloudy,350,2013-08-23 12:51:00
8:51 AM,84.9,75.9,74,29.97,10.0,North,3.5,-,N/A,,Partly Cloudy,350,2013-08-23 13:51:00
9:51 AM,87.1,75.9,69,29.98,10.0,North,5.8,-,N/A,,Scattered Clouds,350,2013-08-23 14:51:00
10:51 AM,89.1,73.0,59,29.99,10.0,NE,6.9,-,N/A,,Scattered Clouds,50,2013-08-23 15:51:00
11:51 AM,91.9,71.1,50,29.98,10.0,NE,10.4,-,N/A,,Scattered Clouds,50,2013-08-23 16:51:00
12:51 PM,93.9,72.0,49,29.98,10.0,East,16.1,21.9,N/A,,Scattered Clouds,80,2013-08-23 17:51:00
1:51 PM,90.0,73.0,57,29.96,10.0,East,12.7,-,0.00,,Scattered Clouds,90,2013-08-23 18:51:00
2:51 PM,91.0,71.1,52,29.94,10.0,East,15.0,-,N/A,,Scattered Clouds,100,2013-08-23 19:51:00
3:51 PM,93.9,72.0,49,29.92,10.0,East,17.3,-,N/A,,Scattered Clouds,90,2013-08-23 20:51:00
4:51 PM,91.9,71.1,50,29.90,10.0,East,13.8,-,N/A,,Partly Cloudy,90,2013-08-23 21:51:00
5:51 PM,90.0,72.0,55,29.89,10.0,ESE,13.8,-,N/A,,Partly Cloudy,110,2013-08-23 22:51:00
6:51 PM,88.0,73.0,61,29.90,10.0,East,15.0,-,N/A,,Partly Cloudy,100,2013-08-23 23:51:00
7:51 PM,87.1,73.9,65,29.90,10.0,ESE,12.7,-,N/A,,Partly Cloudy,110,2013-08-24 00:51:00
8:51 PM,86.0,75.0,70,29.91,10.0,ESE,9.2,-,N/A,,Scattered Clouds,120,2013-08-24 01:51:00
9:51 PM,84.9,73.0,67,29.94,10.0,ESE,10.4,-,N/A,,Partly Cloudy,110,2013-08-24 02:51:00
10:51 PM,84.9,75.0,72,29.93,10.0,ESE,6.9,-,N/A,,Partly Cloudy,110,2013-08-24 03:51:00
11:51 PM,82.9,75.0,77,29.94,10.0,ESE,5.8,-,N/A,,Partly Cloudy,110,2013-08-24 04:51:00